Flag for Austria Past Weather in Feldkirchen in Kärnten, Carinthia, Austria — Yesterday and Last 2 Weeks

57 °F

Low clouds.

Feels Like: N/A
Forecast: 36 / 53 °F
Wind: N/A

Location: Klagenfurt-Flughafen

Current Time: Oct 26, 2016 at 11:19:47 AM

Latest Report: Oct 26, 2016 at 10:00 AM

Visibility: 13 mi

Pressure: 30.25 "Hg (28.36 "Hg at 541m altitude)

Humidity: 91%

Dew Point: 54 °F

Location of Feldkirchen in KärntenLocation

Past Weather in Feldkirchen in Kärnten — Graph


Feldkirchen in Kärnten Temperature Yesterday

Maximum temperature yesterday: 70 °F (at 3:00 PM)
Minimum temperature yesterday: 46 °F (at 8:00 AM)
Average temperature yesterday: 57 °F

High & Low Weather Summary for the Past Weeks

High70 °F (Oct 25, 3:00 PM)100% (Oct 23, 3:00 AM)30.30 "Hg (Oct 23, 3:00 AM)
Low31 °F (Oct 13, 7:00 AM)43% (Oct 12, 3:00 PM)29.93 "Hg (Oct 11, 5:00 PM)
Average49 °F87%30.10 "Hg
* Reported Oct 11 10:00 AM — Oct 26 10:00 AM, Feldkirchen in Kärnten, Weather by CustomWeather, © 2016

Note: Actual official high and low records may vary slightly from our data, if they occured in-between our weather recording intervals... More about our weather records


Feldkirchen in Kärnten Weather History for the Previous 24 Hours

Scroll right to see more
Time TempWeatherWind HumidityBarometerVisibility
10:00 AM
Wed, Oct 26
57 °FLow clouds.N/A91%30.25 "Hg13 mi
9:00 AM57 °FLow clouds.N/A94%30.25 "Hg6 mi
8:00 AM56 °FDrizzle. Low clouds.N/A97%30.22 "Hg1 mi
7:00 AM56 °FLight rain. Low clouds.N/A97%30.21 "Hg1 mi
6:00 AM56 °FLight rain. Low clouds.N/A98%30.20 "Hg1 mi
5:00 AM56 °FLow clouds.N/A98%30.19 "Hg2 mi
4:00 AM56 °FLow clouds.N/A98%30.18 "Hg4 mi
3:00 AM56 °FLow clouds.N/A98%30.18 "Hg1 mi
2:00 AM56 °FOvercast.N/A97%30.17 "Hg1 mi
1:00 AM58 °FLight rain. Low clouds.N/A97%30.17 "Hg7 mi
12:00 AM58 °FLight rain. Low clouds.N/A97%30.16 "Hg4 mi
11:00 PM
Tue, Oct 25
58 °FLight rain. Low clouds.N/A97%30.16 "Hg1 mi
10:00 PM58 °FHeavy rain. Low clouds.No wind97%30.15 "Hg1 mi
9:00 PM58 °FHeavy rain. Low clouds.N/A95%30.15 "Hg4 mi
8:00 PM59 °FHeavy rain. Overcast.N/A95%30.15 "Hg6 mi
7:00 PM60 °FHeavy rain. Overcast.N/A92%30.14 "Hg6 mi
6:00 PM62 °FLight rain. Overcast.N/A84%30.11 "Hg12 mi
5:00 PM67 °FOvercast.N/A62%30.09 "Hg19 mi
4:00 PM68 °FOvercast.N/A62%30.10 "Hg22 mi
3:00 PM70 °FPartly sunny.N/A59%30.11 "Hg25 mi
2:00 PM69 °FPartly sunny.N/A61%30.12 "Hg16 mi
1:00 PM66 °FPartly sunny.N/A67%30.14 "Hg22 mi
12:00 PM62 °FPartly sunny.N/A73%30.17 "Hg16 mi
11:00 AM58 °FPartly sunny.N/A81%30.19 "Hg17 mi
Weather by CustomWeather, © 2016

See weather overviewHow to use our weather pages